Flag for Brazil Weather past 2 weeks in Rio de Janeiro, Rio de Janeiro, Brazil

Now
79 °F

Clear.


Feels Like: 81 °F
Forecast: 69 / 83 °F
Wind: 8 mph from South

Location: Rio De Janeiro Airport

Current Time: May 27, 2015 at 3:21:13 PM

Latest Report: May 27, 2015 at 3:00 PM


Visibility: 5 mi

Pressure: 29.89 "Hg

Humidity: 65%

Dew point: 66 °F

Location of Rio de JaneiroLocation

Historic Weather in Rio de Janeiro — Graph

°F

Rio de Janeiro temperature yesterday

Maximum temperature yesterday: 79 °F (at 11:00 AM)
Minimum temperature yesterday: 68 °F (at 6:00 AM)
Average temperature yesterday: 72 °F

Past Weeks' High & Low Weather Summary

 TemperatureHumidityPressure
High84 °F (May 24, 3:00 PM)100% (May 26, 6:00 PM)30.27 "Hg (May 26, 6:00 PM)
Low66 °F (May 15, 6:00 AM)51% (May 23, 1:00 PM)29.89 "Hg (May 24, 2:00 PM)
Average74 °F77%30.12 "Hg
* Reported May 12 2:00 PM — May 27 2:00 PM, Rio de Janeiro, Weather by CustomWeather, © 2015

Note: Actual official high and low records may vary slightly from our data, if they occured in-between our weather recording intervals... More about our weather records

Advertising

Rio de Janeiro weather history for previous 24 hours

 ConditionsComfort  
Time TempWeatherWind HumidityBarometerVisibility
2:00 PM
Wed, May 27
75 °FClear.10 mph78%29.89 "Hg4 mi
1:00 PM77 °FClear.9 mph74%29.92 "Hg4 mi
12:00 PM73 °FClear.8 mph89%29.95 "Hg4 mi
11:00 AM72 °FClear.6 mph88%29.98 "Hg4 mi
10:00 AM73 °FClear.3 mph83%30.01 "Hg4 mi
9:00 AM72 °FFog.5 mph88%30.01 "Hg3 mi
8:00 AM68 °FFog.2 mph100%30.01 "Hg3 mi
7:00 AM66 °FFog.2 mph100%30.01 "Hg3 mi
6:00 AM66 °FFog.6 mph100%30.01 "Hg1 mi
11:00 PM
Tue, May 26
68 °FFog.2 mph100%30.04 "Hg2 mi
10:00 PM68 °FFog.5 mph100%30.04 "Hg3 mi
9:00 PM68 °FSleet. Fog.7 mph100%30.04 "Hg2 mi
8:00 PM68 °FFog.10 mph100%30.04 "Hg1 mi
7:00 PM68 °FFog.12 mph100%30.01 "Hg0 mi
6:00 PM70 °FFog.12 mph100%30.01 "Hg1 mi
5:00 PM72 °FLight fog.12 mph94%30.01 "HgN/A
4:00 PM73 °FPassing clouds.10 mph89%29.98 "HgN/A
3:00 PM75 °FPassing clouds.10 mph89%30.01 "HgN/A
Weather by CustomWeather, © 2015

See weather overviewHow to use our weather pages